User: anonymous
Location: Unspecified
(0.0000°N, 0.0000°E)
Time: 00:10:40
(UTC+02:00)
Language:

Cosmos 1782 Rocket - Orbit

View from above orbital plane
View from above orbital plane
View from above satellite
View from above satellite

Ground track
Ground track

The orbit data is extracted from the following two-line orbital elements,

1 16987U 86074B   14263.79579428  .00000335  00000-0  38762-4 0  4696
2 16987 082.5188 167.0870 0017064 318.5463 100.1677 14.82466558510223
Epoch (UTC): 20 September 2014 19:05:56
Eccentricity: 0.0017064
inclination: 82.5188°
perigee height: 609 km
apogee height: 633 km
right ascension of ascending node: 167.0870°
argument of perigee: 318.5463°
revolutions per day: 14.82466558
mean anomaly at epoch: 100.1677°
orbit number at epoch: 51022

The dashed part of the orbit path shows where the satellite is in the earth's shadow,  

DLR